Location: Julian California
(33.0790°N, 116.6010°W)
Time: 07:46:34
(UTC-07:00)

YAOGAN 11 - Pass Details

Date: 19 May 2017
Orbit: 614 x 666 km, 98.3° (Epoch: 23 September)

Event Time Altitude Azimuth Distance (km) Brightness Sun altitude
Exits shadow 21:53:47 76° 82° (E) 635 3.9 -23.3°
Maximum altitude 21:53:49 76° 76° (ENE) 635 3.9 -23.3°
Drops below altitude 10° 21:58:06 10° 351° (N) 1,976 7.4 -23.9°
Sets 22:00:17 0° 350° (N) 2,888 8.4 -24.2°
